Time,TemperatureF,DewpointF,PressureIn,WindDirection,WindDirectionDegrees,WindSpeedMPH,WindSpeedGustMPH,Humidity,HourlyPrecipIn,Conditions,Clouds,dailyrainin,SolarRadiationWatts/m^2,SoftwareType,DateUTC
2013-04-03 00:23:00,40.0,38.0,-100.00,ESE,103,3.0,6.0,94,0.00,,,-99.99,1.000000,,2013-04-03 07:23:00,
2013-04-03 00:32:00,40.0,38.0,-100.00,ESE,103,3.0,6.0,94,0.00,,,-99.99,1.000000,,2013-04-03 07:32:00,
2013-04-03 00:42:00,40.0,38.0,-100.00,ESE,103,3.0,6.0,94,0.00,,,-99.99,1.000000,,2013-04-03 07:42:00,
2013-04-03 00:52:00,40.0,38.0,-100.00,ESE,103,3.0,6.0,94,0.00,,,-99.99,1.000000,,2013-04-03 07:52:00,
2013-04-03 01:22:00,37.0,36.0,-100.00,ENE,74,3.0,3.0,98,0.00,,,0.00,1.000000,,2013-04-03 08:22:00,
2013-04-03 01:42:00,37.0,36.0,-100.00,ENE,74,3.0,3.0,98,0.00,,,0.00,1.000000,,2013-04-03 08:42:00,
2013-04-03 01:52:00,37.0,36.0,-100.00,ENE,74,3.0,3.0,98,0.00,,,0.00,1.000000,,2013-04-03 08:52:00,
2013-04-03 02:22:00,34.0,34.0,-100.00,ENE,73,3.0,5.0,99,0.00,,,0.00,1.000000,,2013-04-03 09:22:00,
2013-04-03 02:32:00,34.0,34.0,-100.00,ENE,73,3.0,5.0,99,0.00,,,0.00,1.000000,,2013-04-03 09:32:00,
2013-04-03 02:43:00,34.0,34.0,-100.00,ENE,73,3.0,5.0,99,0.00,,,0.00,1.000000,,2013-04-03 09:43:00,
2013-04-03 02:52:00,34.0,34.0,-100.00,ENE,73,3.0,5.0,99,0.00,,,0.00,1.000000,,2013-04-03 09:52:00,
2013-04-03 03:22:00,33.0,33.0,-100.00,East,85,3.0,4.0,99,0.00,,,0.00,1.000000,,2013-04-03 10:22:00,
2013-04-03 03:33:00,33.0,33.0,-100.00,East,85,3.0,4.0,99,0.00,,,0.00,1.000000,,2013-04-03 10:33:00,
2013-04-03 03:42:00,33.0,33.0,-100.00,East,85,3.0,4.0,99,0.00,,,0.00,1.000000,,2013-04-03 10:42:00,
2013-04-03 03:52:00,33.0,33.0,-100.00,East,85,3.0,4.0,99,0.00,,,0.00,1.000000,,2013-04-03 10:52:00,
2013-04-03 04:22:00,32.0,32.0,-100.00,East,86,4.0,5.0,99,0.00,,,0.00,1.000000,,2013-04-03 11:22:00,
2013-04-03 04:32:00,32.0,32.0,-100.00,East,86,4.0,5.0,99,0.00,,,0.00,1.000000,,2013-04-03 11:32:00,
2013-04-03 04:42:00,32.0,32.0,-100.00,East,86,4.0,5.0,99,0.00,,,0.00,1.000000,,2013-04-03 11:42:00,
2013-04-03 04:52:00,32.0,32.0,-100.00,East,86,4.0,5.0,99,0.00,,,0.00,1.000000,,2013-04-03 11:52:00,
2013-04-03 05:22:00,30.0,30.0,-100.00,East,84,4.0,7.0,99,0.00,,,0.00,1.000000,,2013-04-03 12:22:00,
2013-04-03 05:32:00,30.0,30.0,-100.00,East,84,4.0,7.0,99,0.00,,,0.00,1.000000,,2013-04-03 12:32:00,
2013-04-03 05:42:00,30.0,30.0,-100.00,East,84,4.0,7.0,99,0.00,,,0.00,1.000000,,2013-04-03 12:42:00,
2013-04-03 05:52:00,30.0,30.0,-100.00,East,84,4.0,7.0,99,0.00,,,0.00,1.000000,,2013-04-03 12:52:00,
2013-04-03 06:22:00,30.0,30.0,-100.00,ENE,68,6.0,7.0,99,0.00,,,0.00,1.000000,,2013-04-03 13:22:00,
2013-04-03 06:32:00,30.0,30.0,-100.00,ENE,68,6.0,7.0,99,0.00,,,0.00,1.000000,,2013-04-03 13:32:00,
2013-04-03 06:42:00,30.0,30.0,-100.00,ENE,68,6.0,7.0,99,0.00,,,0.00,1.000000,,2013-04-03 13:42:00,
2013-04-03 06:52:00,30.0,30.0,-100.00,ENE,68,6.0,7.0,99,0.00,,,0.00,1.000000,,2013-04-03 13:52:00,
2013-04-03 07:22:00,31.0,31.0,-100.00,ENE,76,6.0,8.0,100,0.00,,,0.00,2.000000,,2013-04-03 14:22:00,
2013-04-03 07:32:00,31.0,31.0,-100.00,ENE,76,6.0,8.0,100,0.00,,,0.00,2.000000,,2013-04-03 14:32:00,
2013-04-03 07:42:00,31.0,31.0,-100.00,ENE,76,6.0,8.0,100,0.00,,,0.00,2.000000,,2013-04-03 14:42:00,
2013-04-03 07:52:00,31.0,31.0,-100.00,ENE,76,6.0,8.0,100,0.00,,,0.00,2.000000,,2013-04-03 14:52:00,
2013-04-03 08:22:00,32.0,32.0,-100.00,ENE,66,6.0,8.0,100,0.00,,,0.00,38.000000,,2013-04-03 15:22:00,
2013-04-03 08:33:00,32.0,32.0,-100.00,ENE,66,6.0,8.0,100,0.00,,,0.00,38.000000,,2013-04-03 15:33:00,
2013-04-03 08:42:00,32.0,32.0,-100.00,ENE,66,6.0,8.0,100,0.00,,,0.00,38.000000,,2013-04-03 15:42:00,
2013-04-03 08:53:00,32.0,32.0,-100.00,ENE,66,6.0,8.0,100,0.00,,,0.00,38.000000,,2013-04-03 15:53:00,
2013-04-03 09:23:00,34.0,34.0,-100.00,ENE,59,4.0,9.0,100,0.01,,,0.01,97.000000,,2013-04-03 16:23:00,
2013-04-03 09:32:00,34.0,34.0,-100.00,ENE,59,4.0,9.0,100,0.01,,,0.01,97.000000,,2013-04-03 16:32:00,
2013-04-03 09:43:00,34.0,34.0,-100.00,ENE,59,4.0,9.0,100,0.01,,,0.01,97.000000,,2013-04-03 16:43:00,
2013-04-03 09:52:00,34.0,34.0,-100.00,ENE,59,4.0,9.0,100,0.01,,,0.01,97.000000,,2013-04-03 16:52:00,
2013-04-03 10:22:00,37.0,37.0,-100.00,ENE,69,3.0,5.0,99,0.00,,,0.01,178.000000,,2013-04-03 17:22:00,
2013-04-03 10:32:00,37.0,37.0,-100.00,ENE,69,3.0,5.0,99,0.00,,,0.01,178.000000,,2013-04-03 17:32:00,
2013-04-03 10:45:00,37.0,37.0,-100.00,ENE,69,3.0,5.0,99,0.00,,,0.01,178.000000,,2013-04-03 17:45:00,
2013-04-03 10:52:00,37.0,37.0,-100.00,ENE,69,3.0,5.0,99,0.00,,,0.01,178.000000,,2013-04-03 17:52:00,
2013-04-03 11:22:00,41.0,41.0,-100.00,NE,53,2.0,5.0,99,0.00,,,0.01,256.000000,,2013-04-03 18:22:00,
2013-04-03 11:33:00,41.0,41.0,-100.00,NE,53,2.0,5.0,99,0.00,,,0.01,256.000000,,2013-04-03 18:33:00,
2013-04-03 11:42:00,41.0,41.0,-100.00,NE,53,2.0,5.0,99,0.00,,,0.01,256.000000,,2013-04-03 18:42:00,
2013-04-03 11:52:00,41.0,41.0,-100.00,NE,53,2.0,5.0,99,0.00,,,0.01,256.000000,,2013-04-03 18:52:00,
2013-04-03 12:22:00,43.0,42.0,-100.00,NE,56,3.0,5.0,98,0.00,,,0.01,241.000000,,2013-04-03 19:22:00,
2013-04-03 12:32:00,43.0,42.0,-100.00,NE,56,3.0,5.0,98,0.00,,,0.01,241.000000,,2013-04-03 19:32:00,
2013-04-03 12:42:00,43.0,42.0,-100.00,NE,56,3.0,5.0,98,0.00,,,0.01,241.000000,,2013-04-03 19:42:00,
2013-04-03 12:52:00,43.0,42.0,-100.00,NE,56,3.0,5.0,98,0.00,,,0.01,241.000000,,2013-04-03 19:52:00,
2013-04-03 13:22:00,50.0,44.0,-100.00,South,190,3.0,6.0,81,0.00,,,0.01,454.000000,,2013-04-03 20:22:00,
2013-04-03 13:32:00,50.0,44.0,-100.00,South,190,3.0,6.0,81,0.00,,,0.01,454.000000,,2013-04-03 20:32:00,
2013-04-03 13:42:00,50.0,44.0,-100.00,South,190,3.0,6.0,81,0.00,,,0.01,454.000000,,2013-04-03 20:42:00,
2013-04-03 13:52:00,50.0,44.0,-100.00,South,190,3.0,6.0,81,0.00,,,0.01,454.000000,,2013-04-03 20:52:00,
2013-04-03 14:22:00,56.0,44.0,-100.00,WSW,244,4.0,8.0,65,0.00,,,0.01,694.000000,,2013-04-03 21:22:00,
2013-04-03 14:32:00,56.0,44.0,-100.00,WSW,244,4.0,8.0,65,0.00,,,0.01,694.000000,,2013-04-03 21:32:00,
2013-04-03 14:42:00,56.0,44.0,-100.00,WSW,244,4.0,8.0,65,0.00,,,0.01,694.000000,,2013-04-03 21:42:00,
2013-04-03 14:52:00,56.0,44.0,-100.00,WSW,244,4.0,8.0,65,0.00,,,0.01,694.000000,,2013-04-03 21:52:00,
2013-04-03 15:22:00,59.0,41.0,-100.00,SSW,201,5.0,10.0,51,0.00,,,0.01,779.000000,,2013-04-03 22:22:00,
2013-04-03 15:32:00,59.0,41.0,-100.00,SSW,201,5.0,10.0,51,0.00,,,0.01,779.000000,,2013-04-03 22:32:00,
2013-04-03 15:42:00,59.0,41.0,-100.00,SSW,201,5.0,10.0,51,0.00,,,0.01,779.000000,,2013-04-03 22:42:00,
2013-04-03 15:52:00,59.0,41.0,-100.00,SSW,201,5.0,10.0,51,0.00,,,0.01,779.000000,,2013-04-03 22:52:00,
2013-04-03 16:22:00,60.0,40.0,-100.00,West,260,7.0,11.0,48,0.00,,,0.01,665.000000,,2013-04-03 23:22:00,
2013-04-03 16:32:00,60.0,40.0,-100.00,West,260,7.0,11.0,48,0.00,,,0.01,665.000000,,2013-04-03 23:32:00,
2013-04-03 16:42:00,60.0,40.0,-100.00,West,260,7.0,11.0,48,0.00,,,0.01,665.000000,,2013-04-03 23:42:00,
2013-04-03 16:53:00,60.0,40.0,-100.00,West,260,7.0,11.0,48,0.00,,,0.01,665.000000,,2013-04-03 23:53:00,
2013-04-03 18:22:00,57.0,41.0,-100.00,NW,307,4.0,7.0,54,-99.99,,,0.01,184.000000,,2013-04-04 01:22:00,
2013-04-03 18:32:00,57.0,41.0,-100.00,NW,307,4.0,7.0,54,-99.99,,,0.01,184.000000,,2013-04-04 01:32:00,
2013-04-03 18:43:00,57.0,41.0,-100.00,NW,307,4.0,7.0,54,-99.99,,,0.01,184.000000,,2013-04-04 01:43:00,
2013-04-03 18:52:00,57.0,41.0,-100.00,NW,307,4.0,7.0,54,-99.99,,,0.01,184.000000,,2013-04-04 01:52:00,
2013-04-03 19:22:00,53.0,40.0,-100.00,North,356,3.0,6.0,61,0.00,,,-99.99,80.000000,,2013-04-04 02:22:00,
2013-04-03 19:32:00,53.0,40.0,-100.00,North,356,3.0,6.0,61,0.00,,,-99.99,80.000000,,2013-04-04 02:32:00,
2013-04-03 19:42:00,53.0,40.0,-100.00,North,356,3.0,6.0,61,0.00,,,-99.99,80.000000,,2013-04-04 02:42:00,
2013-04-03 19:52:00,53.0,40.0,-100.00,North,356,3.0,6.0,61,0.00,,,-99.99,80.000000,,2013-04-04 02:52:00,
2013-04-03 20:22:00,51.0,39.0,-100.00,East,99,2.0,5.0,64,0.00,,,0.01,12.000000,,2013-04-04 03:22:00,
2013-04-03 20:33:00,51.0,39.0,-100.00,East,99,2.0,5.0,64,0.00,,,0.01,12.000000,,2013-04-04 03:33:00,
2013-04-03 20:43:00,51.0,39.0,-100.00,East,99,2.0,5.0,64,0.00,,,0.01,12.000000,,2013-04-04 03:43:00,
2013-04-03 20:53:00,51.0,39.0,-100.00,East,99,2.0,5.0,64,0.00,,,0.01,12.000000,,2013-04-04 03:53:00,
2013-04-03 21:22:00,50.0,41.0,-100.00,ESE,105,1.0,3.0,71,0.00,,,0.01,1.000000,,2013-04-04 04:22:00,
2013-04-03 21:33:00,50.0,41.0,-100.00,ESE,105,1.0,3.0,71,0.00,,,0.01,1.000000,,2013-04-04 04:33:00,
2013-04-03 21:42:00,50.0,41.0,-100.00,ESE,105,1.0,3.0,71,0.00,,,0.01,1.000000,,2013-04-04 04:42:00,
2013-04-03 21:52:00,50.0,41.0,-100.00,ESE,105,1.0,3.0,71,0.00,,,0.01,1.000000,,2013-04-04 04:52:00,
2013-04-03 22:22:00,49.0,42.0,-100.00,East,83,3.0,4.0,78,0.00,,,0.01,1.000000,,2013-04-04 05:22:00,
2013-04-03 22:32:00,49.0,42.0,-100.00,East,83,3.0,4.0,78,0.00,,,0.01,1.000000,,2013-04-04 05:32:00,
2013-04-03 22:42:00,49.0,42.0,-100.00,East,83,3.0,4.0,78,0.00,,,0.01,1.000000,,2013-04-04 05:42:00,
2013-04-03 22:52:00,49.0,42.0,-100.00,East,83,3.0,4.0,78,0.00,,,0.01,1.000000,,2013-04-04 05:52:00,
2013-04-03 23:22:00,48.0,41.0,-100.00,WSW,252,0.0,4.0,78,0.00,,,0.01,1.000000,,2013-04-04 06:22:00,
2013-04-03 23:32:00,48.0,41.0,-100.00,WSW,252,0.0,4.0,78,0.00,,,0.01,1.000000,,2013-04-04 06:32:00,
2013-04-03 23:42:00,48.0,41.0,-100.00,WSW,252,0.0,4.0,78,0.00,,,0.01,1.000000,,2013-04-04 06:42:00,
2013-04-03 23:52:00,48.0,41.0,-100.00,WSW,252,0.0,4.0,78,0.00,,,0.01,1.000000,,2013-04-04 06:52:00,